Starlink 30043

operational
NORAD ID: 57417 Int'l Des: 2023-102 Owner: SPXS Country: US Constellation: starlink
LEOCIRCULAR

Starlink 30043について

説明を読み込み中...

リアルタイム位置

3D地球を読み込み中...

次回通過

高度履歴

Altitude vs Time

uPlot chart will show altitude changes over time

軌道要素

1 57417U 23102P 25306.47170912 .00002137 00000-0 17328-3 0 9996
2 57417 43.0052 219.7829 0000953 285.7153 74.3585 15.02530511127102
Epoch: Nov 2, 2025 • Age: 42 hours

現在のステータス

高度 558.1 km
速度 7.59 km/s
衛星直下点 15.17°N, 109.94°E
打ち上げ日 Jul 19, 2023
運用期間 2.2 years
タイプ internet

技術仕様

分類 Payload
質量 730.00 kg
乾燥質量 700.00 kg
総質量 730.00 kg
長さ 0.30 m
直径 4.10 m
スパン 29.00 m
形状 Box + pan
製造者 SPXS
バスタイプ Starlink V2M
フェーズステータス In Orbit
所有者/国 SPXS/US

大規模コンステレーション

Loading constellations...